www.pogodaiklimat.ru

Погода и климат >> Архив погоды >> Перу >> Трухильо


ПОГОДА в Трухильо

  • Прогноз погоды в Трухильо
  • Монитор погоды в Трухильо

АРХИВ ПОГОДЫ в Трухильо

Время (UTC), дата Ветер
(напр.,м/с)
 
Видим.   Явления Облачность Т
(С)
Тd
(С)
f
(%)
Тe
(С)
Тes
(С)
Комфортность P
(гПа)
Po
(гПа)
Тmin
(С)
Tmax
(С)
R
(мм)
R24
(мм)
S
(см)
03 17.02 ЮВ 4 10 км 3/0
[Ac trans]
+23.2 +21.3 89 +31 +31 очень
душно
1012.1 1009.3
06 17.02 ЮВ 4 10 км 3/0
[Ac trans]
+22.7 +20.1 85 +29 +29 очень
душно
1011.6 1008.8
09 17.02 ЮВ 2 9000 м 4/0
[Ac trans]
+22.2 +20.2 88 +28 +28 душно 1009.9 1007.1
12 17.02 ЮВ 2 10 км 3/0
[Ac trans]
+22.0 +20.1 89 +28 +29 душно 1011.0 1008.2 +21.8
15 17.02 Ю 5 10 км ясно +24.9 +20.7 78 +31 +40 очень
душно
1013.1 1010.3
18 17.02 Ю 5 10 км 9/9 1320 м
[Sc]
+26.1 +21.0 74 +33 +34 очень
душно
1011.5 1008.7
21 17.02 Ю 4 19 км 10/10 1500 м
[Sc]
+25.0 +21.6 81 +32 +32 очень
душно
1009.8 1007.0
00 18.02 ЮВ 5 10 км 10/3 1500 м
[Sc Ac trans]
+24.4 +21.4 83 +31 +31 очень
душно
1010.6 1007.9 +26.3
03 18.02 ЮВ 4 10 км 10/10 1500 м
[Sc]
+24.7 +21.1 80 +31 +31 очень
душно
1013.0 1010.2
06 18.02 Ю 2 10 км 10/6 2000 м
[Sc Ac trans]
+23.5 +19.9 80 +29 +29 душно 1012.9 1010.1
09 18.02 ЮВ 4 10 км 10/10 2000 м
[Sc]
+22.9 +20.1 84 +30 +30 очень
душно
1011.2 1008.4
12 18.02 ЮВ 3 10 км 10/10 1500 м
[Sc]
+22.7 +20.3 86 +29 +29 очень
душно
1012.4 1009.6 +22.0
15 18.02 Ю 5 10 км 8/8 2000 м
[Sc]
+24.1 +20.9 82 +30 +32 очень
душно
1013.8 1011.0
18 18.02 ЮВ 5 10 км 9/9 1500 м
[Sc]
+25.0 +21.2 79 +32 +33 очень
душно
1013.0 1010.2
21 18.02 Ю 5 10 км 6/6 1500 м
[Sc]
+25.5 +20.8 75 +32 +34 очень
душно
1010.9 1008.1
00 19.02 ЮВ 4 10 км 10/10 1500 м
[Sc]
+24.4 +21.8 85 +31 +31 очень
душно
1011.1 1008.3 +27.0
03 19.02 ЮВ 4 10 км 10/1 1500 м
[Sc Ac trans]
+24.0 +20.8 82 +30 +30 очень
душно
1013.2 1010.4
06 19.02 ЮВ 3 10 км 9/0 2000 м
[Ac trans]
+23.1 +20.3 84 +30 +30 очень
душно
1013.1 1010.3
09 19.02 ЮВ 3 10 км 9/9 1500 м
[Sc]
+23.4 +20.0 81 +30 +30 очень
душно
1011.9 1009.1
12 19.02 ЮВ 2 10 км 10/10 1500 м
[Sc]
+23.9 +20.3 80 +30 +30 очень
душно
1013.2 1010.4 +22.7
15 19.02 Ю 4 10 км 6/3 1500 м
[Sc Ac trans]
+25.7 +21.2 76 +32 +38 очень
душно
1013.9 1011.1
18 19.02 ЮЗ 4 10 км 6/4 1200 м
[Sc Ac trans]
+26.4 +21.6 75 +34 +41 очень
душно
1013.0 1010.2
21 19.02 Ю 4 10 км 3/0
[Ac trans]
+26.4 +21.9 76 +34 +38 очень
душно
1010.2 1007.4
00 20.02 ЮВ 4 9000 м дымка 8/0
[Ac trans]
+24.0 +21.9 88 +31 +31 очень
душно
1010.7 1007.9 +27.9
03 20.02 ЮВ 2 7000 м дымка 9/0 1500 м
[Ac trans]
+23.8 +21.6 87 +30 +30 очень
душно
1013.1 1010.3
06 20.02 Ю 2 8000 м дымка 9/0 2000 м
[Ac trans]
+23.4 +20.8 85 +31 +31 очень
душно
1012.7 1009.9
09 20.02 штиль 0 8000 м дымка 9/0 2000 м
[Ac trans]
+23.5 +20.3 82 +29 +29 душно 1010.8 1008.0
12 20.02 З 2 8000 м дымка 10/0
[Ac trans]
+23.0 +20.3 85 +30 +30 очень
душно
1011.0 1008.2 +22.7
15 20.02 Ю 3 9000 м мгла 3/0
[Ac trans]
+25.9 +21.2 75 +33 +43 очень
душно
1012.3 1009.5
18 20.02 Ю 5 9000 м мгла 10/3 1500 м
[Sc Ac trans]
+27.5 +21.4 69 +35 +38 очень
душно
1010.7 1007.9
21 20.02 ЮВ 4 10 км 9/9 2000 м
[Sc]
+26.8 +22.0 75 +35 +35 очень
душно
1009.5 1006.7
00 21.02 Ю 4 10 км 9/0 2000 м
[As op]
+25.1 +22.5 86 +33 +33 очень
душно
1009.7 1006.9 +29.1
03 21.02 ЮВ 3 10 км 10/3 1500 м
[St Ac trans]
+24.7 +22.4 87 +32 +32 очень
душно
1011.9 1009.1
06 21.02 В 2 10 км 6/0
[Ac trans]
+24.1 +20.3 79 +30 +30 очень
душно
1011.5 1008.7
09 21.02 ЮВ 3 8000 м дымка 6/0
[Ac trans]
+23.2 +20.8 86 +31 +31 очень
душно
1009.9 1007.1
12 21.02 ЮВ 2 8000 м дымка 8/0
[Ac trans]
+22.7 +21.0 90 +30 +30 очень
душно
1010.4 1007.8 +22.7
15 21.02 Ю 3 10 км 9/0
[Ac trans]
+25.9 +19.9 70 +32 +38 очень
душно
1011.8 1009.0
18 21.02 Ю 4 10 км 10/3 1500 м
[Sc Ac trans]
+27.0 +20.7 68 +34 +37 очень
душно
1010.5 1007.7
21 21.02 ЮВ 4 10 км 9/0
[Ac trans]
+26.8 +20.5 68 +33 +35 очень
душно
1008.8 1006.0
00 22.02 ЮВ 5 10 км 10/1 800 м
[Sc Ac trans]
+25.1 +20.7 77 +31 +31 очень
душно
1009.4 1006.6 +28.7
03 22.02 ЮВ 3 9000 м мгла 5/0
[Ac trans]
+24.9 +20.7 78 +31 +31 очень
душно
1010.9 1008.1
06 22.02 ЮВ 3 9000 м мгла 8/0
[Ac trans]
+24.3 +20.3 78 +30 +30 очень
душно
1010.1 1007.3
09 22.02 ЮВ 3 9000 м дымка 8/0
[Ac trans]
+23.3 +20.5 84 +31 +31 очень
душно
1009.5 1006.7
12 22.02 ЮВ 4 8000 м дымка 8/0
[Ac trans]
+23.1 +20.5 85 +30 +31 очень
душно
1010.6 1007.8 +22.7
15 22.02 Ю 6 10 км 1/1 1000 м
[Sc]
+24.3 +20.7 80 +30 +36 очень
душно
1011.7 1008.9
18 22.02 Ю 6 10 км ясно +25.7 +20.8 74 +32 +41 очень
душно
1010.1 1007.3
21 22.02 Ю 5 10 км ясно +25.6 +21.8 80 +33 +37 очень
душно
1008.6 1005.8
00 23.02 ЮВ 6 8000 м дымка 8/0
[Ac trans]
+23.6 +21.2 86 +30 +30 очень
душно
1009.7 1006.9 +26.4
03 23.02 ЮВ 4 10 км 9/0
[Ac trans]
+23.2 +20.2 83 +30 +30 очень
душно
1011.8 1009.0
06 23.02 ЮВ 4 8000 м дымка 8/0
[Ac trans]
+22.7 +20.5 87 +29 +29 очень
душно
1011.5 1008.7
09 23.02 ЮВ 3 7000 м дымка 6/0 2000 м
[Ac trans]
+22.1 +20.4 90 +28 +28 душно 1009.8 1006.8
12 23.02 ЮВ 3 6000 м дымка 9/0
[Ac trans]
+22.1 +20.4 90 +28 +29 душно 1010.7 1007.9 +21.5
18 23.02 Ю 5 10 км 6/1 1200 м
[Sc Ac trans]
+25.6 +21.1 76 +32 +39 очень
душно
1011.2 1008.4
21 23.02 Ю 4 10 км 3/0
[Ac trans]
+25.9 +21.2 75 +33 +37 очень
душно
1009.7 1006.9

 

Местоположение метеостанции Трухильо (Перу): широта -8.08 долгота -79.10 высота над уровнем моря 30 м.

В архиве по умолчанию представлена погода в Трухильо за последнюю неделю. Архивные данные за месяц целиком и за предыдущие месяцы, начиная с января 2011 года, Вы можете получить, выбрав интересующий диапазон дат из раскрывающегося списка и нажав кнопку "Ввод!".


*Определитесь, кто Вы:
робот инопланетянин человек

Внимание! Время в таблицах - всемирное. Для получения местного времени необходимо прибавить поправку, которая равна -5 ч.

Смотрите также архив погоды в соседних городах и на ближайших метеорологических станциях:

Погода в Кахамарке (Перу) (127 км)
Погода в Чимботе (Перу) (134 км)
Погода в Чиклайо (Перу) (164 км)
Погода в Анте (Перу) (217 км)
Погода в Чачапоясе (Перу) (251 км)
Погода в Хуанхуи (Перу) (282 км)
Погода в Тарапото (Перу) (350 км)
Погода в Пьюре (Перу) (361 км)
Погода в Тинго Мария (Перу) (366 км)
Погода в Уануко (Перу) (376 км)

Пояснения к столбцам:

Ветер - указаны скорость ветра в м/с - средняя за 10 мин, порывы в срок и между сроками (в фигурных скобках) и направление, откуда дует ветер: С - северный, СВ - северо-восточный, В - восточный, ЮВ - юго-восточный, Ю - южный, ЮЗ - юго-западный, З - западный, СЗ - северо-западный.
Видимость - горизонтальная дальность видимости в метрах или километрах. При видимости от 1 до 10 км при отсутствии осадков обычно наблюдается дымка, при ухудшении видимости до 1 км и менее - туман. В сухую погоду видимость может ухудшаться дымом, пылью или мглою.
Явления - указаны атмосферные явления, наблюдавшиеся в срок или в последний час перед сроком; фигурными скобками обозначены явления, наблюдавшиеся между сроками (за 1-3 часа до срока); квадратными скобками обозначены град или гололедные отложения с указанием их диаметра в мм.
Облачность - указаны через наклонную черту общая и нижняя облачность в баллах и высота нижней границы облаков в метрах; квадратными скобками обозначены формы облаков: Ci - перистые, Cs - перисто-слоистые, Cc - перисто-кучевые, Ac - высококучевые, As - высокослоистые, Sc - слоисто-кучевые, Ns - слоисто-дождевые, Cu - кучевые, Cb - кучево-дождевые. Подробнее классификацию облаков см. в Атласе облаков (PDF).
T - Температура воздуха - температура, измеренная на высоте 2 м над землей.
Td - Температура точки росы - температура, при понижении до которой содержащийся в воздухе водяной пар достигнет насыщения.
f - Относительная влажность воздуха - влажноcть воздуха, измеренная на высоте 2 м над землей.
Te - Эффективная температура - температура, которую ощущает одетый по сезону человек в тени. Характеристика душности погоды. При расчете учитывается влияние влажности воздуха и скорости ветра на теплоощущения человека.
Tes - Эффективная температура на солнце - температура, которую ощущает человек, с поправкой на солнечный нагрев. Характеристика знойности погоды. Зависит от высоты солнца над горизонтом, облачности и скорости ветра. Ночью, в пасмурную погоду, а также при ветре 12 м/с и более поправка равна нулю.
P - Атмосферное давление - приведенное к уровню моря атмосферное давление.
Po - Атмосферное давление - измеренное на уровне метеостанции атмосферное давление.
Tmin - Минимальная температура - минимум температуры воздуха на высоте 2 м над землей.
Tmax - Максимальная температура - максимум температуры воздуха на высоте 2 м над землей.
R - Количество осадков - Количество выпавших осадков за период времени, мм. При наведении курсора мыши на число - период времени, за который выпало указанное количество осадков.
R24 - Количество осадков - Количество выпавших осадков за 24 часа, мм.
S - Снежный покров - Высота снежного покрова, см. При наведении курсора мыши на число - состояние снежного покрова и степень покрытия местности в баллах.